Flag for U.S.A. Weather past 2 weeks in Fresno, California, U.S.A.

77 °F

Passing clouds.

Feels Like: 79 °F
Forecast: 66 / 92 °F
Wind: 5 mph from Northwest

Location: Fresno Air Terminal

Current Time: Oct 8, 2015 at 11:11:08 PM

Latest Report: Oct 8, 2015 at 9:53 PM

Visibility: 10 mi

Pressure: 30.01 "Hg

Humidity: 50%

Dew point: 57 °F

Location of FresnoLocation

Historic Weather in Fresno — Graph


Fresno temperature yesterday

Maximum temperature yesterday: 86 °F (at 3:53 PM)
Minimum temperature yesterday: 61 °F (at 6:53 AM)
Average temperature yesterday: 74 °F

Past Weeks' High & Low Weather Summary

High98 °F (Sep 25, 3:53 PM)91% (Oct 1, 12:53 PM)30.14 "Hg (Oct 1, 12:53 PM)
Low53 °F (Oct 4, 4:53 AM)13% (Sep 25, 4:53 PM)29.37 "Hg (Oct 3, 8:53 PM)
Average74 °F47%29.87 "Hg
* Reported Sep 23 9:53 PM — Oct 8 9:53 PM, Fresno, Weather by CustomWeather, © 2015

Note: Actual official high and low records may vary slightly from our data, if they occured in-between our weather recording intervals... More about our weather records


Fresno weather history for previous 24 hours

Time TempWeatherWind HumidityBarometerVisibility
9:53 PM
Thu, Oct 8
77 °FPassing clouds.5 mph50%30.01 "Hg10 mi
8:53 PM78 °FPartly cloudy.7 mph46%30.02 "Hg10 mi
7:53 PM81 °FPartly cloudy.7 mph42%30.01 "Hg9 mi
6:53 PM83 °FBroken clouds.8 mph38%30.00 "Hg9 mi
5:53 PM86 °FSunny.8 mph33%29.99 "Hg10 mi
4:53 PM88 °FPartly sunny.8 mph30%30.00 "Hg10 mi
3:53 PM89 °FPartly sunny.7 mph28%30.01 "Hg10 mi
2:53 PM87 °FPartly sunny.3 mph31%30.02 "Hg10 mi
1:53 PM87 °FScattered clouds.No wind31%30.05 "Hg10 mi
12:53 PM84 °FScattered clouds.3 mph36%30.08 "Hg10 mi
11:53 AM81 °FPartly sunny.7 mph42%30.10 "Hg8 mi
10:53 AM80 °FOvercast.9 mph44%30.10 "Hg8 mi
9:53 AM78 °FMore clouds than sun.10 mph43%30.09 "Hg8 mi
8:53 AM73 °FMore clouds than sun.6 mph50%30.10 "Hg9 mi
7:53 AM70 °FMostly cloudy.5 mph59%30.09 "Hg7 mi
6:53 AM66 °FPartly cloudy.No wind68%30.09 "Hg10 mi
5:53 AM67 °FPassing clouds.5 mph66%30.07 "Hg10 mi
4:53 AM68 °FPassing clouds.No wind63%30.07 "Hg10 mi
3:53 AM68 °FPassing clouds.7 mph61%30.06 "Hg10 mi
2:53 AM69 °FPassing clouds.3 mph61%30.08 "Hg10 mi
1:53 AM71 °FPassing clouds.No wind59%30.08 "Hg10 mi
12:53 AM72 °FPassing clouds.No wind55%30.09 "Hg10 mi
11:53 PM
Wed, Oct 7
73 °FPassing clouds.No wind51%30.07 "Hg10 mi
Weather by CustomWeather, © 2015

See weather overviewHow to use our weather pages